Location: Maccacari
(45.1333°N, 11.1333°E)
Time: 07:25:31
(UTC+00:00)

SJ-6B - Pass Details

Date: 18 September 2020
Orbit: 511 x 580 km, 97.6° (Epoch: 30 October)

Event Time Altitude Azimuth Distance (km) Brightness Sun altitude
Exits shadow 19:22:17 33° 200° (SSW) 881 3.7 -21.6°
Maximum altitude 19:23:40 53° 260° (W) 635 3.3 -21.8°
Drops below altitude 10° 19:27:22 10° 338° (NNW) 1,750 6.0 -22.4°
Sets 19:29:31 0° 343° (NNW) 2,649 7.0 -22.8°
